Weather History for Meridian, MS

Change the Weather History Date:

Tuesday, October 1, 2013

  Actual Average Record
Temperature  
Mean Temperature 73 °F 70 °F  
Max Temperature 85 °F 82 °F 95 °F (1954)
Min Temperature 61 °F 57 °F 40 °F (1967)
Degree Days  
Heating Degree Days 0 1  
Month to date heating degree days 0 1  
Since 1 July heating degree days 0 8  
Cooling Degree Days 8 6  
Month to date cooling degree days 8 6  
Year to date cooling degree days 1928 1929  
Growing Degree Days 22 (Base 50)    
Moisture  
Dew Point 66 °F    
Average Humidity 76    
Maximum Humidity 100    
Minimum Humidity 51    
Precipitation  
Precipitation 0.00 in 0.11 in 1.07 in (1988)
Month to date precipitation 0.00 0.11  
Year to date precipitation 52.25 42.50  
Sea Level Pressure  
Sea Level Pressure 30.04 in    
Wind  
Wind Speed 2 mph (East)    
Max Wind Speed 10 mph    
Max Gust Speed 13 mph    
Visibility 9 miles    
Events      
T = Trace of Precipitation, MM = Missing Value Source: NWS Daily Summary

Daily Weather History Graph

Daily Weather History Graph

Search for Another Location

Airport:

Trip Planner

Search our weather history database for the weather conditions in past years. The results will help you decide how hot, cold, wet, or windy it might be!

Date:

Astronomy

Oct. 01, 2013 Rise Set
Actual Time 6:49 AM CDT 6:39 PM CDT
Civil Twilight 6:24 AM CDT 7:03 PM CDT
Nautical Twilight 5:56 AM CDT 7:32 PM CDT
Astronomical Twilight 5:27 AM CDT 8:00 PM CDT
Moon 3:33 AM CDT (10/1) 4:34 PM CDT (10/1)
Length of Visible Light 12h 39m
Length of Day
11h 50m
Waning Crescent, 12% of the Moon is Illuminated
Oct 1
Waning Crescent
Oct 4
New
Oct 11
First Quarter
Oct 18
Full
Oct 26
Last Quarter

Hourly Weather History & Observations

Time (CDT) Temp. Heat Index Dew Point Humidity Pressure Visibility Wind Dir Wind Speed Gust Speed Precip Events Conditions
12:58 AM 66.0 °F - 64.9 °F 96% 30.00 in 9.0 mi Calm Calm - N/A   Overcast
1:58 AM 66.0 °F - 64.9 °F 96% 30.01 in 9.0 mi Calm Calm - N/A   Overcast
2:58 AM 66.0 °F - 64.9 °F 96% 30.01 in 8.0 mi Calm Calm - N/A   Mostly Cloudy
3:09 AM 66.2 °F - 64.4 °F 94% 30.01 in 9.0 mi Calm Calm - N/A   Scattered Clouds
3:58 AM 64.9 °F - 64.0 °F 97% 30.01 in 6.0 mi Calm Calm - N/A   Clear
4:29 AM 62.6 °F - 62.6 °F 100% 30.02 in 2.0 mi Calm Calm - N/A   Clear
4:38 AM 64.4 °F - 62.6 °F 94% 30.03 in 8.0 mi Calm Calm - N/A   Clear
4:58 AM 63.0 °F - 62.1 °F 97% 30.02 in 7.0 mi Calm Calm - N/A   Clear
5:58 AM 63.0 °F - 62.1 °F 97% 30.04 in 6.0 mi Calm Calm - N/A   Clear
6:58 AM 63.0 °F - 62.1 °F 97% 30.05 in 6.0 mi Calm Calm - N/A   Clear
7:42 AM 66.2 °F - 64.4 °F 94% 30.08 in 7.0 mi Calm Calm - N/A   Partly Cloudy
7:58 AM 66.9 °F - 64.9 °F 93% 30.08 in 9.0 mi NE 3.5 mph - N/A   Partly Cloudy
8:58 AM 68.0 °F - 66.0 °F 93% 30.10 in 9.0 mi Calm Calm - N/A   Mostly Cloudy
9:05 AM 69.8 °F - 66.2 °F 88% 30.10 in 9.0 mi Calm Calm - N/A   Overcast
9:58 AM 72.0 °F - 68.0 °F 87% 30.10 in 10.0 mi Calm Calm - N/A   Overcast
10:10 AM 73.4 °F - 68.0 °F 83% 30.11 in 10.0 mi East 3.5 mph - N/A   Mostly Cloudy
10:58 AM 77.0 °F - 69.1 °F 76% 30.10 in 10.0 mi Variable 4.6 mph - N/A   Clear
11:58 AM 80.1 °F 82.9 °F 69.1 °F 69% 30.08 in 10.0 mi Calm Calm - N/A   Partly Cloudy
12:58 PM 82.9 °F 85.4 °F 66.9 °F 58% 30.05 in 10.0 mi ESE 5.8 mph - N/A   Mostly Cloudy
1:58 PM 82.0 °F 84.1 °F 66.0 °F 58% 30.03 in 10.0 mi Variable 3.5 mph - N/A   Scattered Clouds
2:58 PM 84.0 °F 86.3 °F 66.0 °F 55% 30.02 in 10.0 mi East 4.6 mph - N/A   Scattered Clouds
3:58 PM 84.0 °F 85.8 °F 64.9 °F 53% 30.01 in 10.0 mi ESE 5.8 mph - N/A   Clear
4:58 PM 82.0 °F 84.1 °F 66.0 °F 58% 30.02 in 10.0 mi East 4.6 mph - N/A   Clear
5:58 PM 80.1 °F 82.7 °F 68.0 °F 67% 30.02 in 10.0 mi ESE 4.6 mph - N/A   Clear
6:58 PM 73.9 °F - 70.0 °F 87% 30.03 in 10.0 mi Calm Calm - N/A   Clear
7:58 PM 73.0 °F - 70.0 °F 90% 30.04 in 10.0 mi Calm Calm - N/A   Clear
8:58 PM 70.0 °F - 69.1 °F 97% 30.04 in 10.0 mi Calm Calm - N/A   Clear
9:58 PM 70.0 °F - 68.0 °F 93% 30.06 in 10.0 mi Calm Calm - N/A   Clear
10:58 PM 68.0 °F - 66.9 °F 96% 30.06 in 10.0 mi Calm Calm - N/A   Clear
11:58 PM 66.9 °F - 66.0 °F 97% 30.06 in 10.0 mi Calm Calm - N/A   Clear